Weather History for Doha, Qatar

Change the Weather History Date:

Saturday, September 4, 2010

  Actual Average Record
Temperature  
Mean Temperature 102 °F -  
Max Temperature 111 °F 100 °F 113 °F (1997)
Min Temperature 92 °F 79 °F 82 °F (1997)
Cooling Degree Days 36    
Growing Degree Days 52 (Base 50)    
Moisture  
Dew Point 76 °F    
Average Humidity 52    
Maximum Humidity 84    
Minimum Humidity 16    
Precipitation  
Precipitation 0.00 in 0.00 in - ()
Sea Level Pressure  
Sea Level Pressure 29.47 in    
Wind  
Wind Speed 6 mph ()    
Max Wind Speed 14 mph    
Max Gust Speed -    
Visibility 4.7 miles    
Events      
Averages and records for this station are not official NWS values.
T = Trace of Precipitation, MM = Missing Value Source: Averaged Metar Reports

Daily Weather History Graph

Daily Weather History Graph

Search for Another Location

Airport:

Trip Planner

Search our weather history database for the weather conditions in past years. The results will help you decide how hot, cold, wet, or windy it might be!

Date:

Astronomy

Sep. 04, 2010 Rise Set
Actual Time 5:15 AM AST 5:49 PM AST
Civil Twilight 4:52 AM AST 6:13 PM AST
Nautical Twilight 4:25 AM AST 6:40 PM AST
Astronomical Twilight 3:57 AM AST 7:07 PM AST
Moon 12:32 AM AST (9/4) 2:34 PM AST (9/4)
Length of Visible Light 13h 20m
Length of Day
12h 34m
Waning Crescent, 22% of the Moon is Illuminated
Sep 4
Waning Crescent
Sep 8
New
Sep 15
First Quarter
Sep 23
Full
Oct 1
Last Quarter

Hourly Weather History & Observations

Time (AST) Temp. Heat Index Dew Point Humidity Pressure Visibility Wind Dir Wind Speed Gust Speed Precip Events Conditions
12:00 AM - - - N/A% 0.30 in - WSW 3.5 mph - N/A   Clear
1:00 AM 93.2 °F 110.2 °F 78.8 °F 63% 29.53 in - Calm Calm - N/A   Clear
2:00 AM 93.2 °F 110.2 °F 78.8 °F 63% 29.50 in - SW 3.5 mph - N/A   Clear
2:08 AM 93.2 °F 110.2 °F 78.8 °F 63% 29.50 in - SW 3.5 mph - N/A   Clear
3:00 AM 92 °F - 76 °F 51% 29.51 in 6 mi SW 4.6 mph - -  
3:00 AM 93.2 °F 105.0 °F 75.2 °F 56% 29.50 in - SW 4.6 mph - N/A   Clear
4:00 AM 93.2 °F 102.4 °F 73.4 °F 52% 28.32 in - WSW 4.6 mph - N/A   Clear
5:00 AM 93.2 °F 98.8 °F 69.8 °F 46% 29.50 in - WSW 5.8 mph - N/A   Clear
6:00 AM 95.0 °F 96.0 °F 62.6 °F 34% 29.53 in 4.3 mi NW 11.5 mph - N/A   Unknown
7:00 AM 95.0 °F 98.5 °F 66.2 °F 39% 29.53 in 5.0 mi NW 11.5 mph - N/A   Unknown
8:00 AM 100.4 °F 104.9 °F 66.2 °F 33% 29.53 in - NW 9.2 mph - N/A   Clear
9:00 AM 103 °F - 61 °F 16% 29.55 in 6 mi NW 11.5 mph - -   Scattered Clouds
9:00 AM 104.0 °F 105.3 °F 60.8 °F 24% 29.53 in - NW 11.5 mph - N/A   Clear
10:00 AM 107.6 °F 112.3 °F 64.4 °F 25% 29.53 in - NW 9.2 mph - N/A   Clear
11:00 AM 109.4 °F 109.4 °F 57.2 °F 18% 29.53 in - NNW 9.2 mph - N/A   Clear
12:00 PM 105.8 °F 114.2 °F 69.8 °F 31% 29.50 in - NNE 10.4 mph - N/A   Clear
1:00 PM 105.8 °F 121.3 °F 75.2 °F 38% 29.47 in 5.0 mi NE 13.8 mph - N/A   Unknown
2:00 PM 102.2 °F 128.5 °F 82.4 °F 53% 29.47 in 5.0 mi NE 12.7 mph - N/A   Unknown
3:00 PM 101 °F - 83 °F 50% 29.49 in 4 mi 10.4 mph - -   Widespread Dust
3:00 PM 100.4 °F 130.9 °F 84.2 °F 60% 29.47 in 4.3 mi East 10.4 mph - N/A   Unknown
4:00 PM 98.6 °F 128.0 °F 84.2 °F 63% 29.47 in 4.3 mi ESE 8.1 mph - N/A   Unknown
5:00 PM 96.8 °F 126.0 °F 84.2 °F 67% 29.50 in 4.3 mi East 5.8 mph - N/A   Unknown
6:00 PM 96.8 °F 121.7 °F 82.4 °F 63% 29.50 in 3.7 mi ENE 4.6 mph - N/A   Unknown
7:00 PM 95.0 °F 119.6 °F 82.4 °F 67% 29.50 in 4.3 mi NNE 3.5 mph - N/A   Unknown
8:00 PM 95.0 °F 119.6 °F 82.4 °F 67% 29.50 in 5.0 mi Calm Calm - N/A   Unknown
9:00 PM 94 °F - 85 °F 69% 29.55 in 5 mi NNE 6.9 mph - -   Haze
9:00 PM 93.2 °F 120.9 °F 84.2 °F 75% 29.53 in 5.0 mi NNE 6.9 mph - N/A   Unknown
10:00 PM 93.2 °F 124.9 °F 86.0 °F 79% 29.53 in 5.0 mi NNE 4.6 mph - N/A   Unknown
11:00 PM 93.2 °F 130.3 °F 87.8 °F 84% 29.53 in 3.7 mi North 6.9 mph - N/A   Partly Cloudy